{"data":{"norad_id":39157,"epoch":"2026-05-25T02:29:52.480896Z","epoch_age_seconds":65333,"freshness":"FRESH","line1":"1 39157U 13020A   26145.10407964 -.00000293  00000+0  00000+0 0  9993","line2":"2 39157   0.0147 313.8046 0002101 100.6063 323.6282  1.00273583 47662","mean_motion":1.00273583,"eccentricity":0.0002101,"inclination_deg":0.0147,"raan_deg":313.8046,"arg_perigee_deg":100.6063,"mean_anomaly_deg":323.6282,"bstar":0,"rev_number":4766,"period_min":1436.0711534562,"perigee_km":35777.232219766,"apogee_km":35794.94962834,"semimajor_km":42164.227924053,"source":"CELESTRAK","updated_at":"2026-05-25T13:38:13.942744Z"}}